Location: Ecklingerode
(51.5036°N, 10.3122°E)
Time: 01:28:21
(UTC+00:00)

Cosmos 1825 - Pass Details

Date: 29 October 2020
Orbit: 502 x 508 km, 82.5° (Epoch: 23 November)

Event Time Altitude Azimuth Distance (km) Brightness Sun altitude
Rises 18:44:12 0° 340° (NNW) 2,627 6.2 -26.5°
Reaches altitude 10° 18:46:33 10° 328° (NNW) 1,734 5.4 -26.9°
Maximum altitude 18:49:45 27° 270° (W) 1,012 4.3 -27.3°
Enters shadow 18:52:10 15° 220° (SW) 1,454 4.7 -27.7°
